| time (UTC) | temp C | wind direction | speed KPH | gust KPH | rain 1hr cm | rain 24hr cm | rain mn cm | humidity % | barometer mb |
| 20260906014737 | 31 | 151 | 8.0 | 14.5 | 0.00 | 0.00 | 0.00 | 57 | 1011.4 |
| 20260906014237 | 32 | 151 | 6.4 | 14.5 | 0.00 | 0.00 | 0.00 | 57 | 1011.3 |
| 20260906013737 | 32 | 149 | 6.4 | 11.3 | 0.00 | 0.00 | 0.00 | 55 | 1011.3 |
| 20260906013238 | 32 | 146 | 8.0 | 12.9 | 0.00 | 0.00 | 0.00 | 55 | 1011.1 |
| 20260906012737 | 32 | 143 | 6.4 | 12.9 | 0.00 | 0.00 | 0.00 | 55 | 1011.1 |
| 20260906012236 | 32 | 148 | 4.8 | 12.9 | 0.00 | 0.00 | 0.00 | 54 | 1011.0 |
| 20260906011737 | 32 | 146 | 4.8 | 11.3 | 0.00 | 0.00 | 0.00 | 54 | 1010.9 |
| 20260906011236 | 32 | 146 | 4.8 | 11.3 | 0.00 | 0.00 | 0.00 | 55 | 1010.9 |
| 20260906010737 | 32 | 151 | 4.8 | 8.0 | 0.00 | 0.00 | 0.00 | 56 | 1010.9 |
| 20260906010238 | 32 | 152 | 4.8 | 11.3 | 0.00 | 0.00 | 0.00 | 55 | 1010.7 |
| 20260906005737 | 32 | 153 | 4.8 | 11.3 | 0.00 | 0.00 | 0.00 | 55 | 1010.7 |
| 20260906005236 | 32 | 153 | 6.4 | 11.3 | 0.00 | 0.00 | 0.00 | 55 | 1010.6 |
| 20260906004737 | 32 | 152 | 6.4 | 12.9 | 0.00 | 0.00 | 0.00 | 56 | 1010.7 |
| 20260906004236 | 33 | 150 | 6.4 | 12.9 | 0.00 | 0.00 | 0.00 | 55 | 1010.6 |
| 20260906003737 | 33 | 150 | 6.4 | 12.9 | 0.00 | 0.00 | 0.00 | 54 | 1010.6 |
| 20260906003238 | 33 | 144 | 6.4 | 11.3 | 0.00 | 0.00 | 0.00 | 52 | 1010.6 |
| 20260906001736 | 33 | 147 | 8.0 | 14.5 | 0.00 | 0.00 | 0.00 | 50 | 1010.6 |
| 20260906001238 | 33 | 147 | 6.4 | 14.5 | 0.00 | 0.00 | 0.00 | 49 | 1010.5 |
| 20260906000736 | 34 | 141 | 6.4 | 14.5 | 0.00 | 0.00 | 0.00 | 49 | 1010.5 |
| 20260906000237 | 34 | 141 | 6.4 | 14.5 | 0.00 | 0.00 | 0.00 | 49 | 1010.4 |
| 20260905235736 | 34 | 137 | 8.0 | 17.7 | 0.00 | 0.00 | 0.00 | 50 | 1010.5 |
| 20260905235237 | 34 | 139 | 9.7 | 17.7 | 0.00 | 0.00 | 0.00 | 49 | 1010.4 |
| 20260905234737 | 34 | 144 | 9.7 | 17.7 | 0.00 | 0.00 | 0.00 | 49 | 1010.4 |
| 20260905234237 | 35 | 136 | 8.0 | 16.1 | 0.00 | 0.00 | 0.00 | 48 | 1010.3 |
| 20260905233738 | 35 | 126 | 6.4 | 17.7 | 0.00 | 0.00 | 0.00 | 47 | 1010.4 |
| 20260905233237 | 35 | 126 | 6.4 | 17.7 | 0.00 | 0.00 | 0.00 | 46 | 1010.4 |
| 20260905232738 | 35 | 128 | 6.4 | 16.1 | 0.00 | 0.00 | 0.00 | 45 | 1010.4 |
| 20260905232236 | 35 | 122 | 4.8 | 12.9 | 0.00 | 0.00 | 0.00 | 46 | 1010.4 |
| 20260905231738 | 35 | 103 | 4.8 | 14.5 | 0.00 | 0.00 | 0.00 | 46 | 1010.4 |
| 20260905231237 | 35 | 113 | 4.8 | 14.5 | 0.00 | 0.00 | 0.00 | 45 | 1010.5 |
| 20260905230236 | 36 | 119 | 4.8 | 12.9 | 0.00 | 0.00 | 0.00 | 45 | 1010.6 |
| 20260905225737 | 37 | 139 | 4.8 | 12.9 | 0.00 | 0.00 | 0.00 | 41 | 1010.5 |
| 20260905224738 | 37 | 164 | 4.8 | 9.7 | 0.00 | 0.00 | 0.00 | 38 | 1010.2 |
| 20260905224237 | 37 | 153 | 6.4 | 11.3 | 0.00 | 0.00 | 0.00 | 38 | 1010.3 |
| 20260905223737 | 37 | 152 | 4.8 | 11.3 | 0.00 | 0.00 | 0.00 | 39 | 1010.3 |
| 20260905223237 | 37 | 154 | 4.8 | 8.0 | 0.00 | 0.00 | 0.00 | 39 | 1010.1 |
| 20260905222737 | 37 | 146 | 3.2 | 9.7 | 0.00 | 0.00 | 0.00 | 39 | 1010.1 |
| 20260905222238 | 37 | 131 | 4.8 | 11.3 | 0.00 | 0.00 | 0.00 | 38 | 1010.1 |
| 20260905221737 | 37 | 131 | 3.2 | 11.3 | 0.00 | 0.00 | 0.00 | 38 | 1010.0 |
| 20260905221237 | 37 | 143 | 3.2 | 8.0 | 0.00 | 0.00 | 0.00 | 37 | 1010.0 |
| 20260905220738 | 37 | 142 | 3.2 | 8.0 | 0.00 | 0.00 | 0.00 | 37 | 1010.1 |
| 20260905220237 | 37 | 86 | 3.2 | 8.0 | 0.00 | 0.00 | 0.00 | 36 | 1010.0 |
| 20260905215237 | 37 | 152 | 3.2 | 11.3 | 0.00 | 0.00 | 0.00 | 36 | 1010.0 |
| 20260905213237 | 37 | 137 | 3.2 | 9.7 | 0.00 | 0.00 | 0.00 | 36 | 1010.4 |
| 20260905212738 | 37 | 131 | 3.2 | 9.7 | 0.00 | 0.00 | 0.00 | 36 | 1010.5 |
| 20260905212239 | 37 | 134 | 3.2 | 9.7 | 0.00 | 0.00 | 0.00 | 37 | 1010.6 |
| 20260905211737 | 37 | 145 | 3.2 | 9.7 | 0.00 | 0.00 | 0.00 | 36 | 1010.8 |
| 20260905210737 | 37 | 144 | 4.8 | 11.3 | 0.00 | 0.00 | 0.00 | 38 | 1010.8 |
| 20260905210237 | 37 | 148 | 4.8 | 11.3 | 0.00 | 0.00 | 0.00 | 37 | 1010.8 |
| 20260905205737 | 37 | 149 | 3.2 | 8.0 | 0.00 | 0.00 | 0.00 | 38 | 1010.8 |
| 20260905205237 | 37 | 143 | 1.6 | 8.0 | 0.00 | 0.00 | 0.00 | 37 | 1010.9 |
| 20260905204738 | 37 | 146 | 3.2 | 9.7 | 0.00 | 0.00 | 0.00 | 39 | 1011.0 |
| 20260905204237 | 37 | 142 | 3.2 | 9.7 | 0.00 | 0.00 | 0.00 | 38 | 1011.1 |
| 20260905203738 | 37 | 125 | 3.2 | 8.0 | 0.00 | 0.00 | 0.00 | 37 | 1011.2 |
| 20260905202737 | 37 | 146 | 3.2 | 8.0 | 0.00 | 0.00 | 0.00 | 38 | 1011.3 |
| 20260905202237 | 36 | 151 | 3.2 | 8.0 | 0.00 | 0.00 | 0.00 | 39 | 1011.3 |
| 20260905201737 | 37 | 126 | 3.2 | 11.3 | 0.00 | 0.00 | 0.00 | 40 | 1011.5 |
| 20260905201237 | 37 | 122 | 4.8 | 11.3 | 0.00 | 0.00 | 0.00 | 40 | 1011.5 |
| 20260905200236 | 36 | 148 | 4.8 | 14.5 | 0.00 | 0.00 | 0.00 | 40 | 1011.6 |
| 20260905194737 | 36 | 120 | 4.8 | 12.9 | 0.00 | 0.00 | 0.00 | 42 | 1012.0 |
| 20260905194237 | 36 | 234 | 4.8 | 12.9 | 0.00 | 0.00 | 0.00 | 42 | 1011.9 |
| 20260905193737 | 36 | 233 | 4.8 | 12.9 | 0.00 | 0.00 | 0.00 | 41 | 1012.1 |
| 20260905193237 | 36 | 178 | 3.2 | 8.0 | 0.00 | 0.00 | 0.00 | 42 | 1012.2 |
| 20260905192737 | 36 | 191 | 3.2 | 6.4 | 0.00 | 0.00 | 0.00 | 41 | 1012.2 |
| 20260905191737 | 36 | 172 | 4.8 | 12.9 | 0.00 | 0.00 | 0.00 | 42 | 1012.4 |
| 20260905190737 | 36 | 155 | 3.2 | 8.0 | 0.00 | 0.00 | 0.00 | 43 | 1012.6 |
| 20260905190238 | 36 | 188 | 3.2 | 8.0 | 0.00 | 0.00 | 0.00 | 44 | 1012.6 |
| 20260905185737 | 36 | 182 | 3.2 | 8.0 | 0.00 | 0.00 | 0.00 | 44 | 1012.8 |
| 20260905184737 | 36 | 226 | 4.8 | 14.5 | 0.00 | 0.00 | 0.00 | 45 | 1013.0 |
| 20260905183737 | 35 | 157 | 3.2 | 11.3 | 0.00 | 0.00 | 0.00 | 47 | 1013.2 |
| 20260905183238 | 35 | 153 | 3.2 | 11.3 | 0.00 | 0.00 | 0.00 | 46 | 1013.2 |
| 20260905182737 | 35 | 148 | 3.2 | 11.3 | 0.00 | 0.00 | 0.00 | 46 | 1013.3 |
| 20260905182238 | 35 | 150 | 3.2 | 11.3 | 0.00 | 0.00 | 0.00 | 45 | 1013.4 |
| 20260905181737 | 35 | 131 | 4.8 | 11.3 | 0.00 | 0.00 | 0.00 | 45 | 1013.5 |
| 20260905181238 | 35 | 148 | 4.8 | 11.3 | 0.00 | 0.00 | 0.00 | 47 | 1013.5 |
| 20260905180737 | 35 | 159 | 4.8 | 12.9 | 0.00 | 0.00 | 0.00 | 47 | 1013.7 |
| 20260905175737 | 35 | 148 | 3.2 | 11.3 | 0.00 | 0.00 | 0.00 | 47 | 1013.9 |
| 20260905175237 | 35 | 150 | 3.2 | 9.7 | 0.00 | 0.00 | 0.00 | 47 | 1013.9 |
| 20260905174739 | 35 | 166 | 3.2 | 9.7 | 0.00 | 0.00 | 0.00 | 48 | 1014.0 |
| 20260905174238 | 35 | 156 | 3.2 | 9.7 | 0.00 | 0.00 | 0.00 | 48 | 1014.1 |
| 20260905173738 | 35 | 124 | 4.8 | 8.0 | 0.00 | 0.00 | 0.00 | 47 | 1014.2 |
| 20260905172737 | 35 | 146 | 3.2 | 11.3 | 0.00 | 0.00 | 0.00 | 46 | 1014.2 |
| 20260905172237 | 35 | 159 | 3.2 | 9.7 | 0.00 | 0.00 | 0.00 | 46 | 1014.3 |
| 20260905171737 | 35 | 191 | 3.2 | 11.3 | 0.00 | 0.00 | 0.00 | 46 | 1014.3 |
| 20260905170238 | 33 | 158 | 4.8 | 11.3 | 0.00 | 0.00 | 0.00 | 48 | 1014.4 |
| 20260905165237 | 34 | 162 | 3.2 | 9.7 | 0.00 | 0.00 | 0.00 | 49 | 1014.5 |
| 20260905164237 | 33 | 173 | 3.2 | 11.3 | 0.00 | 0.00 | 0.00 | 51 | 1014.5 |
| 20260905163738 | 33 | 175 | 3.2 | 11.3 | 0.00 | 0.00 | 0.00 | 51 | 1014.5 |
| 20260905163238 | 33 | 181 | 3.2 | 11.3 | 0.00 | 0.00 | 0.00 | 51 | 1014.5 |
| 20260905162737 | 33 | 181 | 3.2 | 11.3 | 0.00 | 0.00 | 0.00 | 51 | 1014.5 |
| 20260905162237 | 33 | 158 | 3.2 | 9.7 | 0.00 | 0.00 | 0.00 | 51 | 1014.5 |
| 20260905161737 | 33 | 154 | 3.2 | 8.0 | 0.00 | 0.00 | 0.00 | 54 | 1014.6 |
| 20260905161238 | 33 | 181 | 3.2 | 9.7 | 0.00 | 0.00 | 0.00 | 54 | 1014.7 |
| 20260905160738 | 33 | 202 | 3.2 | 9.7 | 0.00 | 0.00 | 0.00 | 55 | 1014.6 |
| 20260905160237 | 32 | 182 | 3.2 | 8.0 | 0.00 | 0.00 | 0.00 | 56 | 1014.6 |
| 20260905155738 | 32 | 198 | 3.2 | 12.9 | 0.00 | 0.00 | 0.00 | 57 | 1014.5 |
| 20260905155237 | 32 | 222 | 4.8 | 12.9 | 0.00 | 0.00 | 0.00 | 58 | 1014.5 |
| 20260905154738 | 32 | 202 | 3.2 | 11.3 | 0.00 | 0.00 | 0.00 | 60 | 1014.6 |
| 20260905153737 | 31 | 160 | 3.2 | 8.0 | 0.00 | 0.00 | 0.00 | 61 | 1014.6 |
| 20260905153238 | 31 | 171 | 3.2 | 8.0 | 0.00 | 0.00 | 0.00 | 62 | 1014.5 |
| 20260905152737 | 31 | 211 | 3.2 | 9.7 | 0.00 | 0.00 | 0.00 | 62 | 1014.6 |
| 20260905152238 | 31 | 208 | 3.2 | 9.7 | 0.00 | 0.00 | 0.00 | 63 | 1014.7 |
| 20260905151737 | 31 | 211 | 3.2 | 12.9 | 0.00 | 0.00 | 0.00 | 64 | 1014.7 |
| 20260905151238 | 31 | 226 | 3.2 | 12.9 | 0.00 | 0.00 | 0.00 | 65 | 1014.7 |
| 20260905150737 | 31 | 228 | 3.2 | 11.3 | 0.00 | 0.00 | 0.00 | 66 | 1014.8 |
| 20260905150238 | 30 | 222 | 3.2 | 11.3 | 0.00 | 0.00 | 0.00 | 68 | 1014.7 |
| 20260905145737 | 30 | 171 | 1.6 | 9.7 | 0.00 | 0.00 | 0.00 | 70 | 1014.8 |
| 20260905145238 | 30 | 183 | 1.6 | 8.0 | 0.00 | 0.00 | 0.00 | 71 | 1014.7 |
| 20260905144737 | 30 | 203 | 1.6 | 8.0 | 0.00 | 0.00 | 0.00 | 71 | 1014.6 |
| 20260905144238 | 29 | 181 | 1.6 | 4.8 | 0.00 | 0.00 | 0.00 | 73 | 1014.6 |
| 20260905143737 | 29 | 176 | 1.6 | 4.8 | 0.00 | 0.00 | 0.00 | 74 | 1014.6 |
| 20260905143238 | 28 | 204 | 1.6 | 8.0 | 0.00 | 0.00 | 0.00 | 75 | 1014.6 |
| 20260905142737 | 28 | 192 | 3.2 | 8.0 | 0.00 | 0.00 | 0.00 | 76 | 1014.5 |
| 20260905142238 | 28 | 175 | 1.6 | 6.4 | 0.00 | 0.00 | 0.00 | 76 | 1014.5 |
| 20260905141737 | 28 | 182 | 1.6 | 3.2 | 0.00 | 0.00 | 0.00 | 77 | 1014.5 |
| 20260905141237 | 28 | 172 | 1.6 | 6.4 | 0.00 | 0.00 | 0.00 | 78 | 1014.5 |
| 20260905140738 | 27 | 162 | 1.6 | 6.4 | 0.00 | 0.00 | 0.00 | 79 | 1014.5 |
| 20260905140238 | 27 | 154 | 1.6 | 4.8 | 0.00 | 0.00 | 0.00 | 80 | 1014.6 |
| 20260905135737 | 27 | 171 | 1.6 | 4.8 | 0.00 | 0.00 | 0.00 | 81 | 1014.5 |
| 20260905135238 | 27 | 160 | 1.6 | 4.8 | 0.00 | 0.00 | 0.00 | 82 | 1014.5 |
| 20260905134737 | 26 | 149 | 1.6 | 4.8 | 0.00 | 0.00 | 0.00 | 83 | 1014.3 |
| 20260905134239 | 26 | 158 | 1.6 | 4.8 | 0.00 | 0.00 | 0.00 | 84 | 1014.3 |
| 20260905133737 | 26 | 177 | 1.6 | 3.2 | 0.00 | 0.00 | 0.00 | 84 | 1014.3 |
| 20260905133238 | 26 | 173 | 1.6 | 3.2 | 0.00 | 0.00 | 0.00 | 85 | 1014.3 |
| 20260905132739 | 25 | 166 | 1.6 | 3.2 | 0.00 | 0.00 | 0.00 | 86 | 1014.4 |
| 20260905132238 | 25 | 144 | 1.6 | 1.6 | 0.00 | 0.00 | 0.00 | 86 | 1014.4 |
| 20260905131738 | 25 | 128 | 1.6 | 3.2 | 0.00 | 0.00 | 0.00 | 87 | 1014.4 |
| 20260905131239 | 25 | 117 | 1.6 | 3.2 | 0.00 | 0.00 | 0.00 | 89 | 1014.4 |
| 20260905130739 | 24 | 108 | 1.6 | 3.2 | 0.00 | 0.00 | 0.00 | 90 | 1014.4 |
| 20260905130238 | 24 | 0 | 0.0 | 1.6 | 0.00 | 0.00 | 0.00 | 92 | 1014.4 |
| 20260905125237 | 23 | 0 | 0.0 | 0.0 | 0.00 | 0.00 | 0.00 | 92 | 1014.1 |
| 20260905124738 | 23 | 0 | 0.0 | 0.0 | 0.00 | 0.00 | 0.00 | 92 | 1014.1 |
| 20260905124237 | 23 | 0 | 0.0 | 1.6 | 0.00 | 0.00 | 0.00 | 91 | 1014.0 |
| 20260905123738 | 23 | 0 | 0.0 | 1.6 | 0.00 | 0.00 | 0.00 | 91 | 1014.0 |
| 20260905123238 | 23 | 0 | 0.0 | 0.0 | 0.00 | 0.00 | 0.00 | 91 | 1013.9 |
| 20260905122737 | 23 | 0 | 0.0 | 0.0 | 0.00 | 0.00 | 0.00 | 91 | 1013.9 |
| 20260905121737 | 23 | 0 | 0.0 | 0.0 | 0.00 | 0.00 | 0.00 | 91 | 1013.8 |
| 20260905121238 | 23 | 0 | 0.0 | 0.0 | 0.00 | 0.00 | 0.00 | 91 | 1013.7 |
| 20260905120738 | 23 | 0 | 0.0 | 0.0 | 0.00 | 0.00 | 0.00 | 90 | 1013.6 |
| 20260905114237 | 23 | 0 | 0.0 | 0.0 | 0.00 | 0.00 | 0.00 | 90 | 1013.4 |
| 20260905113738 | 23 | 0 | 0.0 | 0.0 | 0.00 | 0.00 | 0.00 | 89 | 1013.3 |
| 20260905113237 | 23 | 0 | 0.0 | 0.0 | 0.00 | 0.00 | 0.00 | 88 | 1013.3 |
| 20260905111738 | 23 | 0 | 0.0 | 0.0 | 0.00 | 0.00 | 0.00 | 88 | 1013.1 |
| 20260905111238 | 23 | 0 | 0.0 | 0.0 | 0.00 | 0.00 | 0.00 | 88 | 1013.2 |
| 20260905105737 | 23 | 0 | 0.0 | 0.0 | 0.00 | 0.00 | 0.00 | 88 | 1013.4 |
| 20260905105238 | 23 | 0 | 0.0 | 0.0 | 0.00 | 0.00 | 0.00 | 88 | 1013.4 |
| 20260905104737 | 23 | 0 | 0.0 | 0.0 | 0.00 | 0.00 | 0.00 | 86 | 1013.3 |
| 20260905104237 | 24 | 0 | 0.0 | 0.0 | 0.00 | 0.00 | 0.00 | 86 | 1013.3 |
| 20260905103737 | 24 | 0 | 0.0 | 0.0 | 0.00 | 0.00 | 0.00 | 86 | 1013.4 |
| 20260905103238 | 24 | 0 | 0.0 | 0.0 | 0.00 | 0.00 | 0.00 | 85 | 1013.3 |
| 20260905102737 | 24 | 0 | 0.0 | 0.0 | 0.00 | 0.00 | 0.00 | 85 | 1013.4 |
| 20260905102238 | 24 | 0 | 0.0 | 0.0 | 0.00 | 0.00 | 0.00 | 85 | 1013.5 |
| 20260905101237 | 25 | 0 | 0.0 | 0.0 | 0.00 | 0.00 | 0.00 | 85 | 1013.4 |
| 20260905100738 | 24 | 0 | 0.0 | 0.0 | 0.00 | 0.00 | 0.00 | 86 | 1013.3 |
| 20260905100238 | 24 | 0 | 0.0 | 0.0 | 0.00 | 0.00 | 0.00 | 86 | 1013.3 |
| 20260905095738 | 24 | 0 | 0.0 | 0.0 | 0.00 | 0.00 | 0.00 | 86 | 1013.3 |
| 20260905095238 | 24 | 0 | 0.0 | 0.0 | 0.00 | 0.00 | 0.00 | 85 | 1013.4 |
| 20260905094737 | 25 | 0 | 0.0 | 0.0 | 0.00 | 0.00 | 0.00 | 84 | 1013.2 |
| 20260905094237 | 25 | 0 | 0.0 | 0.0 | 0.00 | 0.00 | 0.00 | 84 | 1013.3 |
| 20260905093738 | 25 | 0 | 0.0 | 0.0 | 0.00 | 0.00 | 0.00 | 83 | 1013.2 |
| 20260905093238 | 25 | 0 | 0.0 | 0.0 | 0.00 | 0.00 | 0.00 | 83 | 1013.1 |
| 20260905092737 | 25 | 0 | 0.0 | 1.6 | 0.00 | 0.00 | 0.00 | 84 | 1013.1 |
| 20260905092238 | 25 | 0 | 0.0 | 1.6 | 0.00 | 0.00 | 0.00 | 84 | 1013.2 |
| 20260905091739 | 25 | 0 | 0.0 | 3.2 | 0.00 | 0.00 | 0.00 | 84 | 1013.2 |
| 20260905091239 | 25 | 0 | 0.0 | 3.2 | 0.00 | 0.00 | 0.00 | 84 | 1013.2 |
| 20260905090738 | 25 | 0 | 0.0 | 1.6 | 0.00 | 0.00 | 0.00 | 83 | 1013.2 |
| 20260905085738 | 25 | 0 | 0.0 | 3.2 | 0.00 | 0.00 | 0.00 | 83 | 1013.0 |
| 20260905085238 | 25 | 0 | 0.0 | 1.6 | 0.00 | 0.00 | 0.00 | 83 | 1013.2 |
| 20260905084238 | 25 | 0 | 0.0 | 1.6 | 0.00 | 0.00 | 0.00 | 83 | 1013.1 |
| 20260905083238 | 25 | 0 | 0.0 | 1.6 | 0.00 | 0.00 | 0.00 | 83 | 1012.9 |
| 20260905082739 | 25 | 0 | 0.0 | 1.6 | 0.00 | 0.00 | 0.00 | 82 | 1012.9 |
| 20260905081738 | 25 | 169 | 1.6 | 4.8 | 0.00 | 0.00 | 0.00 | 81 | 1013.0 |
| 20260905080738 | 25 | 182 | 1.6 | 3.2 | 0.00 | 0.00 | 0.00 | 80 | 1013.1 |
| 20260905080237 | 26 | 0 | 0.0 | 3.2 | 0.00 | 0.00 | 0.00 | 80 | 1013.0 |
| 20260905075238 | 26 | 0 | 0.0 | 1.6 | 0.00 | 0.00 | 0.00 | 80 | 1013.1 |
| 20260905074737 | 26 | 0 | 0.0 | 1.6 | 0.00 | 0.00 | 0.00 | 80 | 1013.2 |
| 20260905073738 | 26 | 0 | 0.0 | 1.6 | 0.00 | 0.00 | 0.00 | 80 | 1013.3 |
| 20260905073238 | 26 | 0 | 0.0 | 1.6 | 0.00 | 0.00 | 0.00 | 80 | 1013.3 |
| 20260905072738 | 26 | 0 | 0.0 | 0.0 | 0.00 | 0.00 | 0.00 | 79 | 1013.3 |
| 20260905072238 | 26 | 0 | 0.0 | 0.0 | 0.00 | 0.00 | 0.00 | 79 | 1013.3 |
| 20260905071238 | 26 | 0 | 0.0 | 1.6 | 0.00 | 0.00 | 0.00 | 78 | 1013.4 |
| 20260905070738 | 26 | 0 | 0.0 | 1.6 | 0.00 | 0.00 | 0.00 | 78 | 1013.4 |
| 20260905070239 | 26 | 0 | 0.0 | 1.6 | 0.00 | 0.00 | 0.00 | 78 | 1013.3 |
| 20260905065738 | 26 | 0 | 0.0 | 1.6 | 0.00 | 0.00 | 0.00 | 78 | 1013.3 |
| 20260905065238 | 26 | 0 | 0.0 | 1.6 | 0.00 | 0.00 | 0.00 | 78 | 1013.3 |
| 20260905064738 | 26 | 0 | 0.0 | 1.6 | 0.00 | 0.00 | 0.00 | 77 | 1013.4 |
| 20260905064238 | 26 | 0 | 0.0 | 1.6 | 0.00 | 0.00 | 0.00 | 77 | 1013.5 |
| 20260905063738 | 26 | 0 | 0.0 | 1.6 | 0.00 | 0.00 | 0.00 | 77 | 1013.6 |
| 20260905063237 | 26 | 0 | 0.0 | 1.6 | 0.00 | 0.00 | 0.00 | 77 | 1013.6 |
| 20260905062237 | 26 | 0 | 0.0 | 3.2 | 0.00 | 0.00 | 0.00 | 76 | 1013.6 |
| 20260905060738 | 27 | 168 | 1.6 | 4.8 | 0.00 | 0.00 | 0.00 | 75 | 1013.4 |
| 20260905060238 | 27 | 0 | 0.0 | 3.2 | 0.00 | 0.00 | 0.00 | 75 | 1013.3 |
| 20260905055738 | 27 | 0 | 0.0 | 1.6 | 0.00 | 0.00 | 0.00 | 75 | 1013.3 |
| 20260905055239 | 27 | 0 | 0.0 | 1.6 | 0.00 | 0.00 | 0.00 | 75 | 1013.3 |
| 20260905054738 | 27 | 173 | 1.6 | 3.2 | 0.00 | 0.00 | 0.00 | 74 | 1013.4 |
| 20260905054239 | 27 | 176 | 1.6 | 3.2 | 0.00 | 0.00 | 0.00 | 74 | 1013.4 |
| 20260905053738 | 27 | 181 | 1.6 | 3.2 | 0.00 | 0.00 | 0.00 | 74 | 1013.5 |
| 20260905053238 | 27 | 178 | 1.6 | 3.2 | 0.00 | 0.00 | 0.00 | 73 | 1013.3 |
| 20260905052738 | 27 | 172 | 1.6 | 3.2 | 0.00 | 0.00 | 0.00 | 73 | 1013.3 |
| 20260905052238 | 27 | 169 | 1.6 | 3.2 | 0.00 | 0.00 | 0.00 | 73 | 1013.4 |
| 20260905051737 | 27 | 166 | 1.6 | 6.4 | 0.00 | 0.00 | 0.00 | 73 | 1013.3 |
| 20260905051238 | 27 | 165 | 1.6 | 6.4 | 0.00 | 0.00 | 0.00 | 73 | 1013.3 |
| 20260905050237 | 27 | 0 | 0.0 | 1.6 | 0.00 | 0.00 | 0.00 | 73 | 1013.2 |
| 20260905045740 | 27 | 0 | 0.0 | 3.2 | 0.00 | 0.00 | 0.00 | 72 | 1013.3 |
| 20260905044738 | 27 | 0 | 0.0 | 1.6 | 0.00 | 0.00 | 0.00 | 71 | 1013.4 |
| 20260905044240 | 27 | 0 | 0.0 | 1.6 | 0.00 | 0.00 | 0.00 | 71 | 1013.4 |
| 20260905043738 | 27 | 0 | 0.0 | 1.6 | 0.00 | 0.00 | 0.00 | 71 | 1013.4 |
| 20260905043239 | 28 | 0 | 0.0 | 1.6 | 0.00 | 0.00 | 0.00 | 71 | 1013.4 |
| 20260905042738 | 28 | 0 | 0.0 | 1.6 | 0.00 | 0.00 | 0.00 | 70 | 1013.3 |
| 20260905042238 | 28 | 162 | 1.6 | 3.2 | 0.00 | 0.00 | 0.00 | 70 | 1013.4 |
| 20260905041739 | 28 | 159 | 1.6 | 3.2 | 0.00 | 0.00 | 0.00 | 70 | 1013.4 |
| 20260905041239 | 28 | 159 | 1.6 | 3.2 | 0.00 | 0.00 | 0.00 | 69 | 1013.4 |
| 20260905040738 | 28 | 161 | 1.6 | 4.8 | 0.00 | 0.00 | 0.00 | 69 | 1013.4 |
| 20260905035738 | 28 | 178 | 1.6 | 3.2 | 0.00 | 0.00 | 0.00 | 68 | 1013.3 |
| 20260905035238 | 28 | 170 | 1.6 | 3.2 | 0.00 | 0.00 | 0.00 | 68 | 1013.4 |
| 20260905034739 | 28 | 163 | 1.6 | 4.8 | 0.00 | 0.00 | 0.00 | 67 | 1013.4 |
| 20260905034238 | 28 | 163 | 1.6 | 4.8 | 0.00 | 0.00 | 0.00 | 67 | 1013.4 |
| 20260905033738 | 28 | 169 | 1.6 | 3.2 | 0.00 | 0.00 | 0.00 | 67 | 1013.4 |
| 20260905033238 | 28 | 179 | 1.6 | 4.8 | 0.00 | 0.00 | 0.00 | 66 | 1013.4 |
| 20260905032739 | 28 | 181 | 1.6 | 4.8 | 0.00 | 0.00 | 0.00 | 66 | 1013.3 |
| 20260905032237 | 29 | 173 | 1.6 | 3.2 | 0.00 | 0.00 | 0.00 | 65 | 1013.3 |
| 20260905031738 | 29 | 167 | 1.6 | 3.2 | 0.00 | 0.00 | 0.00 | 65 | 1013.4 |
| 20260905031238 | 29 | 0 | 0.0 | 3.2 | 0.00 | 0.00 | 0.00 | 64 | 1013.4 |
| 20260905030738 | 29 | 166 | 1.6 | 1.6 | 0.00 | 0.00 | 0.00 | 64 | 1013.3 |
| 20260905025739 | 29 | 170 | 1.6 | 3.2 | 0.00 | 0.00 | 0.00 | 63 | 1013.1 |
| 20260905025238 | 30 | 177 | 1.6 | 3.2 | 0.00 | 0.00 | 0.00 | 63 | 1013.1 |
| 20260905024738 | 30 | 183 | 1.6 | 4.8 | 0.00 | 0.00 | 0.00 | 63 | 1013.0 |
| 20260905024238 | 30 | 178 | 1.6 | 4.8 | 0.00 | 0.00 | 0.00 | 63 | 1013.1 |
| 20260905023739 | 30 | 178 | 1.6 | 4.8 | 0.00 | 0.00 | 0.00 | 62 | 1013.0 |
| 20260905023238 | 30 | 177 | 1.6 | 3.2 | 0.00 | 0.00 | 0.00 | 62 | 1012.9 |
| 20260905021238 | 30 | 159 | 3.2 | 8.0 | 0.00 | 0.00 | 0.00 | 61 | 1012.5 |
| 20260905020738 | 30 | 159 | 3.2 | 8.0 | 0.00 | 0.00 | 0.00 | 61 | 1012.5 |
| 20260905020238 | 31 | 161 | 1.6 | 6.4 | 0.00 | 0.00 | 0.00 | 60 | 1012.5 |
| 20260905015738 | 31 | 164 | 3.2 | 6.4 | 0.00 | 0.00 | 0.00 | 60 | 1012.4 |
| 20260905015238 | 31 | 161 | 3.2 | 8.0 | 0.00 | 0.00 | 0.00 | 61 | 1012.3 |